Saratoga, WY

6:42 PM MST on December 05, 2016 (GMT -0700)
Shively

Weather History for KSAA - March, 2014

Change the Weather History Date:

Friday, March 28, 2014

  Actual Average Record
Temperature  
Mean Temperature 32 °F -  
Max Temperature 42 °F 44 °F 68 °F (2015)
Min Temperature 23 °F 21 °F 23 °F (2014)
Degree Days  
Heating Degree Days 32    
Moisture  
Dew Point 19 °F    
Average Humidity 60    
Maximum Humidity 80    
Minimum Humidity 29    
Precipitation  
Precipitation 0.00 in - - ()
Sea Level Pressure  
Sea Level Pressure 30.04 in    
Wind  
Wind Speed 17 mph (WSW)    
Max Wind Speed 26 mph    
Max Gust Speed 37 mph    
Visibility 10 miles    
Events Snow    
Averages and records for this station are not official NWS values.
T = Trace of Precipitation, MM = Missing Value Source: NWS Daily Summary

Daily Weather History Graph

Daily Weather History Graph

Search for Another Location

Airport or City:

Trip Planner

Search our weather history database for the weather conditions in past years. The results will help you decide how hot, cold, wet, or windy it might be!

Date:

Astronomy

Mar. 28, 2014 Rise Set
Actual Time 6:56 AM MDT 7:28 PM MDT
Civil Twilight 6:29 AM MDT 7:56 PM MDT
Nautical Twilight 5:56 AM MDT 8:28 PM MDT
Astronomical Twilight 5:22 AM MDT 9:02 PM MDT
Moon 5:31 AM MDT (3/28) 5:27 PM MDT (3/28)
Length of Visible Light 13h 26m
Length of Day
12h 31m
Waning Crescent, 6% of the Moon is Illuminated
Mar 28
Waning Crescent
Mar 30
New
Apr 7
First Quarter
Apr 15
Full
Apr 22
Last Quarter

Hourly Weather History & Observations

Time (MDT) Temp. Windchill Dew Point Humidity Pressure Visibility Wind Dir Wind Speed Gust Speed Precip Events Conditions
12:15 AM 26.6 °F 13.4 °F 19.4 °F 74% 29.87 in 10.0 mi WSW 18.4 mph - N/A   Clear
12:35 AM 26.6 °F 12.7 °F 19.4 °F 74% 29.87 in 10.0 mi WSW 20.7 mph 26.5 mph N/A   Clear
12:55 AM 26.6 °F 12.4 °F 19.4 °F 74% 29.87 in 10.0 mi WSW 21.9 mph 31.1 mph N/A   Clear
1:15 AM 26.6 °F 11.7 °F 21.2 °F 80% 29.87 in 10.0 mi WSW 24.2 mph 31.1 mph N/A   Clear
1:35 AM 28.4 °F 15.1 °F 21.2 °F 74% 29.88 in 10.0 mi WSW 20.7 mph 27.6 mph N/A   Clear
1:55 AM 28.4 °F 15.4 °F 21.2 °F 74% 29.89 in 10.0 mi WSW 19.6 mph 26.5 mph N/A   Clear
2:15 AM 26.6 °F 13.4 °F 21.2 °F 80% 29.88 in 10.0 mi WSW 18.4 mph 29.9 mph N/A   Clear
2:35 AM 26.6 °F 12.7 °F 19.4 °F 74% 29.88 in 10.0 mi WSW 20.7 mph 27.6 mph N/A   Clear
2:55 AM 26.6 °F 12.4 °F 19.4 °F 74% 29.88 in 10.0 mi WSW 21.9 mph 27.6 mph N/A   Clear
3:15 AM 26.6 °F 13.1 °F 19.4 °F 74% 29.88 in 10.0 mi WSW 19.6 mph 27.6 mph N/A   Clear
3:35 AM 26.6 °F 12.7 °F 19.4 °F 74% 29.88 in 10.0 mi WSW 20.7 mph 29.9 mph N/A   Clear
3:55 AM 26.6 °F 12.7 °F 19.4 °F 74% 29.89 in 10.0 mi WSW 20.7 mph 28.8 mph N/A   Clear
4:15 AM 26.6 °F 15.7 °F 19.4 °F 74% 29.90 in 10.0 mi WSW 12.7 mph - N/A   Clear
4:35 AM 24.8 °F 15.3 °F 19.4 °F 80% 29.91 in 10.0 mi WSW 9.2 mph - N/A   Clear
4:55 AM 24.8 °F 20.5 °F 17.6 °F 74% 29.91 in 10.0 mi West 3.5 mph - N/A   Clear
5:15 AM 26.6 °F - 17.6 °F 69% 29.92 in 10.0 mi Calm Calm - N/A   Clear
5:35 AM 26.6 °F - 19.4 °F 74% 29.94 in 10.0 mi Calm Calm - N/A   Scattered Clouds
6:15 AM 26.6 °F 18.2 °F 19.4 °F 74% 29.94 in 10.0 mi WSW 8.1 mph - N/A   Mostly Cloudy
6:35 AM 26.6 °F 16.2 °F 19.4 °F 74% 29.95 in 10.0 mi WSW 11.5 mph 17.3 mph N/A   Scattered Clouds
6:55 AM 26.6 °F 13.8 °F 21.2 °F 80% 29.95 in 10.0 mi WSW 17.3 mph 21.9 mph N/A   Scattered Clouds
7:15 AM 28.4 °F 16.6 °F 21.2 °F 74% 29.97 in 10.0 mi WSW 16.1 mph 21.9 mph N/A   Scattered Clouds
7:35 AM 28.4 °F 17.0 °F 21.2 °F 74% 29.98 in 4.0 mi WSW 15.0 mph 23.0 mph N/A Snow Light Snow
7:55 AM 28.4 °F 17.5 °F 21.2 °F 74% 29.99 in 10.0 mi WSW 13.8 mph 18.4 mph N/A   Mostly Cloudy
8:15 AM 28.4 °F 17.5 °F 21.2 °F 74% 30.00 in 10.0 mi WSW 13.8 mph 17.3 mph N/A   Scattered Clouds
8:35 AM 30.2 °F 18.5 °F 23.0 °F 75% 30.00 in 10.0 mi WSW 17.3 mph 24.2 mph N/A   Clear
8:55 AM 32.0 °F 20.1 °F 23.0 °F 69% 30.00 in 10.0 mi WSW 19.6 mph 28.8 mph N/A   Clear
9:15 AM 32.0 °F 19.8 °F 23.0 °F 69% 30.01 in 10.0 mi WSW 20.7 mph 29.9 mph N/A   Clear
9:35 AM 32.0 °F 18.6 °F 23.0 °F 69% 30.01 in 10.0 mi WSW 25.3 mph 31.1 mph N/A   Clear
9:55 AM 32.0 °F 19.5 °F 21.2 °F 64% 30.02 in 10.0 mi West 21.9 mph 35.7 mph N/A   Clear
10:15 AM 32.0 °F 18.6 °F 23.0 °F 69% 30.04 in 10.0 mi West 25.3 mph 35.7 mph N/A   Clear
10:35 AM 33.8 °F 22.5 °F 23.0 °F 65% 30.05 in 10.0 mi WSW 19.6 mph 28.8 mph N/A   Scattered Clouds
10:55 AM 33.8 °F 21.6 °F 23.0 °F 65% 30.06 in 10.0 mi WSW 23.0 mph 28.8 mph N/A   Scattered Clouds
11:15 AM 35.6 °F 25.5 °F 21.2 °F 56% 30.07 in 10.0 mi West 17.3 mph 33.4 mph N/A   Mostly Cloudy
11:35 AM 35.6 °F 24.2 °F 19.4 °F 52% 30.08 in 10.0 mi West 21.9 mph 31.1 mph N/A   Mostly Cloudy
11:55 AM 35.6 °F 23.7 °F 19.4 °F 52% 30.08 in 10.0 mi West 24.2 mph 29.9 mph N/A   Scattered Clouds
12:15 PM 35.6 °F 23.7 °F 23.0 °F 60% 30.09 in 10.0 mi West 24.2 mph 32.2 mph N/A   Scattered Clouds
12:35 PM 37.4 °F 26.6 °F 21.2 °F 52% 30.08 in 10.0 mi WSW 21.9 mph 32.2 mph N/A   Scattered Clouds
12:55 PM 37.4 °F 25.6 °F 23.0 °F 56% 30.09 in 10.0 mi WSW 26.5 mph 33.4 mph N/A   Scattered Clouds
1:15 PM 37.4 °F 27.2 °F 21.2 °F 52% 30.09 in 10.0 mi WSW 19.6 mph 31.1 mph N/A   Scattered Clouds
1:35 PM 37.4 °F 27.5 °F 21.2 °F 52% 30.09 in 10.0 mi WSW 18.4 mph 26.5 mph N/A   Scattered Clouds
1:55 PM 39.2 °F 29.3 °F 24.8 °F 56% 30.10 in 10.0 mi WSW 20.7 mph 31.1 mph N/A   Mostly Cloudy
2:15 PM 37.4 °F 26.1 °F 23.0 °F 56% 30.10 in 10.0 mi WSW 24.2 mph 29.9 mph N/A   Scattered Clouds
2:35 PM 39.2 °F 29.3 °F 21.2 °F 49% 30.10 in 10.0 mi West 20.7 mph 27.6 mph N/A   Scattered Clouds
2:55 PM 39.2 °F 28.7 °F 19.4 °F 45% 30.09 in 10.0 mi West 23.0 mph 32.2 mph N/A   Clear
3:15 PM 41.0 °F 30.5 °F 17.6 °F 39% 30.10 in 10.0 mi West 26.5 mph 31.1 mph N/A   Clear
3:35 PM 35.6 °F 24.8 °F 19.4 °F 52% 30.10 in 5.0 mi West 19.6 mph 23.0 mph N/A   Mostly Cloudy
3:55 PM 35.6 °F 25.5 °F 23.0 °F 60% 30.11 in 10.0 mi WNW 17.3 mph 27.6 mph N/A   Overcast
4:15 PM 35.6 °F 28.6 °F 24.8 °F 65% 30.11 in 10.0 mi NW 9.2 mph - N/A   Overcast
4:35 PM 41.0 °F 35.8 °F 19.4 °F 42% 30.10 in 10.0 mi WNW 8.1 mph 19.6 mph N/A   Mostly Cloudy
4:55 PM 42.8 °F 33.3 °F 12.2 °F 29% 30.10 in 10.0 mi West 24.2 mph 36.8 mph N/A   Mostly Cloudy
5:15 PM 41.0 °F 31.1 °F 12.2 °F 31% 30.11 in 10.0 mi West 23.0 mph 31.1 mph N/A   Mostly Cloudy
5:35 PM 41.0 °F 30.9 °F 10.4 °F 29% 30.11 in 10.0 mi West 24.2 mph 29.9 mph N/A   Clear
5:55 PM 41.0 °F 31.4 °F 10.4 °F 29% 30.12 in 10.0 mi West 21.9 mph 28.8 mph N/A   Clear
6:15 PM 41.0 °F 32.8 °F 10.4 °F 29% 30.13 in 10.0 mi West 16.1 mph 29.9 mph N/A   Clear
6:35 PM 41.0 °F 32.2 °F 10.4 °F 29% 30.13 in 10.0 mi West 18.4 mph 24.2 mph N/A   Scattered Clouds
6:55 PM 37.4 °F 28.5 °F 10.4 °F 33% 30.14 in 10.0 mi West 15.0 mph 19.6 mph N/A   Clear
7:15 PM 35.6 °F 28.0 °F 12.2 °F 38% 30.14 in 10.0 mi West 10.4 mph 17.3 mph N/A   Clear
7:35 PM 33.8 °F 30.8 °F 12.2 °F 41% 30.15 in 10.0 mi WSW 3.5 mph - N/A   Clear
7:55 PM 32.0 °F - 12.2 °F 44% 30.15 in 10.0 mi Calm Calm - N/A   Clear
8:15 PM 30.2 °F 21.9 °F 14.0 °F 51% 30.16 in 10.0 mi WSW 9.2 mph - N/A   Clear
8:35 PM 32.0 °F 23.0 °F 15.8 °F 51% 30.17 in 10.0 mi SW 11.5 mph - N/A   Clear
8:55 PM 30.2 °F 21.9 °F 17.6 °F 60% 30.18 in 10.0 mi SW 9.2 mph - N/A   Clear
9:15 PM 30.2 °F 21.3 °F 17.6 °F 60% 30.19 in 10.0 mi SSW 10.4 mph - N/A   Clear
9:35 PM 30.2 °F 25.4 °F 15.8 °F 55% 30.20 in 10.0 mi South 4.6 mph - N/A   Clear
9:55 PM 28.4 °F 21.2 °F 17.6 °F 64% 30.20 in 10.0 mi WSW 6.9 mph - N/A   Clear
10:15 PM 30.2 °F 24.3 °F 15.8 °F 55% 30.20 in 10.0 mi SW 5.8 mph - N/A   Clear
10:35 PM 23.0 °F 15.8 °F 15.8 °F 74% 30.20 in 10.0 mi SE 5.8 mph - N/A   Clear
10:55 PM 26.6 °F 21.2 °F 17.6 °F 69% 30.20 in 10.0 mi SSW 4.6 mph - N/A   Clear
11:15 PM 30.2 °F 25.4 °F 17.6 °F 60% 30.20 in 10.0 mi SW 4.6 mph - N/A   Clear
11:35 PM 30.2 °F 21.9 °F 17.6 °F 60% 30.20 in 10.0 mi SW 9.2 mph - N/A   Clear